TimeCST,TemperatureF,Dew PointF,Humidity,Sea Level PressureIn,VisibilityMPH,Wind Direction,Wind SpeedMPH,Gust SpeedMPH,PrecipitationIn,Events,Conditions,WindDirDegrees,DateUTC
12:59 AM,37.6,31.8,80,29.75,10.0,WNW,18.4,21.9,,,Mostly Cloudy,300,2013-12-29 06:59:00
1:29 AM,35.6,32.0,87,29.73,10.0,NW,21.9,29.9,N/A,,Mostly Cloudy,320,2013-12-29 07:29:00
1:44 AM,33.8,32.0,93,29.74,10.0,NW,20.7,27.6,N/A,,Overcast,320,2013-12-29 07:44:00
1:47 AM,32.0,32.0,100,29.74,10.0,NW,18.4,27.6,N/A,,Overcast,320,2013-12-29 07:47:00
2:19 AM,32.0,32.0,100,29.76,9.0,NW,18.4,-,N/A,,Overcast,310,2013-12-29 08:19:00
2:49 AM,32.0,32.0,100,29.79,10.0,NW,19.6,27.6,N/A,,Overcast,320,2013-12-29 08:49:00
2:58 AM,32.2,31.1,96,29.82,10.0,NNW,16.1,28.8,,,Overcast,330,2013-12-29 08:58:00
3:03 AM,32.0,32.0,100,29.80,10.0,NW,19.6,24.2,N/A,,Overcast,320,2013-12-29 09:03:00
3:11 AM,32.0,30.2,93,29.81,10.0,NW,19.6,26.5,N/A,,Overcast,320,2013-12-29 09:11:00
3:58 AM,27.7,25.3,91,29.88,10.0,NNW,21.9,25.3,,,Overcast,340,2013-12-29 09:58:00
4:39 AM,24.8,24.8,100,29.86,10.0,NNW,16.1,25.3,N/A,,Overcast,330,2013-12-29 10:39:00
4:54 AM,24.8,24.8,100,29.87,10.0,NNW,18.4,24.2,N/A,Rain,Light Freezing Rain,330,2013-12-29 10:54:00
4:58 AM,25.2,24.1,96,29.91,9.0,NNW,18.4,24.2,,Rain,Light Freezing Rain,330,2013-12-29 10:58:00
5:25 AM,23.0,21.2,93,29.89,10.0,NNW,19.6,27.6,N/A,,Overcast,330,2013-12-29 11:25:00
5:39 AM,23.0,21.2,93,29.91,10.0,NNW,18.4,26.5,N/A,,Overcast,340,2013-12-29 11:39:00
5:49 AM,23.0,21.2,93,29.92,10.0,NNW,20.7,26.5,N/A,,Overcast,340,2013-12-29 11:49:00
5:51 AM,21.2,21.2,100,29.92,10.0,NNW,18.4,-,N/A,,Light Freezing Drizzle,340,2013-12-29 11:51:00
5:58 AM,21.9,20.3,93,29.98,9.0,NNW,17.3,-,,,Light Freezing Drizzle,330,2013-12-29 11:58:00
5:59 AM,21.2,21.2,100,29.93,9.0,NNW,16.1,-,N/A,Snow,Light Snow,340,2013-12-29 11:59:00
6:08 AM,21.2,19.4,93,29.94,8.0,NNW,18.4,24.2,N/A,,Overcast,330,2013-12-29 12:08:00
6:09 AM,21.2,19.4,93,29.94,8.0,NNW,17.3,24.2,N/A,,Light Freezing Drizzle,330,2013-12-29 12:09:00
6:15 AM,21.2,19.4,93,29.95,8.0,NNW,17.3,-,N/A,Snow,Light Snow,340,2013-12-29 12:15:00
6:23 AM,21.2,19.4,93,29.95,8.0,NNW,19.6,26.5,N/A,,Overcast,330,2013-12-29 12:23:00
6:24 AM,21.2,19.4,93,29.95,8.0,NNW,18.4,26.5,N/A,,Light Freezing Drizzle,340,2013-12-29 12:24:00
6:34 AM,21.2,19.4,93,29.96,9.0,NNW,17.3,25.3,N/A,,Light Freezing Drizzle,340,2013-12-29 12:34:00
6:54 AM,19.4,17.6,93,29.97,10.0,North,16.1,24.2,N/A,,Overcast,350,2013-12-29 12:54:00
6:58 AM,20.1,17.2,89,30.01,10.0,North,12.7,24.2,,,Overcast,350,2013-12-29 12:58:00
7:23 AM,19.4,15.8,86,29.99,10.0,NNW,15.0,24.2,N/A,,Overcast,340,2013-12-29 13:23:00
7:58 AM,19.4,12.2,74,30.06,10.0,NNW,15.0,25.3,N/A,Snow,Light Snow,330,2013-12-29 13:58:00
8:29 AM,17.6,10.4,73,30.02,10.0,NNW,19.6,-,N/A,,Mostly Cloudy,340,2013-12-29 14:29:00
8:58 AM,17.6,10.4,73,30.06,10.0,NNW,18.4,-,N/A,,Mostly Cloudy,330,2013-12-29 14:58:00
9:58 AM,17.6,8.6,68,30.10,10.0,NNW,17.3,27.6,N/A,,Mostly Cloudy,340,2013-12-29 15:58:00
10:11 AM,17.6,8.6,68,30.05,10.0,NW,17.3,-,N/A,Snow,Light Snow,320,2013-12-29 16:11:00
10:58 AM,15.8,6.8,68,30.11,10.0,NW,18.4,24.2,N/A,Snow,Light Snow,310,2013-12-29 16:58:00
11:12 AM,15.8,6.8,68,30.05,10.0,NW,20.7,-,N/A,,Overcast,320,2013-12-29 17:12:00
11:58 AM,14.0,5.0,67,30.10,10.0,NNW,13.8,24.2,N/A,,Overcast,330,2013-12-29 17:58:00
12:14 PM,14.0,5.0,67,30.05,10.0,NW,17.3,23.0,N/A,Snow,Light Snow,310,2013-12-29 18:14:00
12:47 PM,14.0,5.0,67,30.05,10.0,NW,17.3,-,N/A,,Overcast,310,2013-12-29 18:47:00
12:58 PM,14.0,5.0,67,30.11,10.0,NW,17.3,-,N/A,,Overcast,310,2013-12-29 18:58:00
1:01 PM,14.0,5.0,67,30.06,10.0,WNW,15.0,-,N/A,Snow,Light Snow,300,2013-12-29 19:01:00
1:12 PM,14.0,5.0,67,30.06,10.0,WNW,15.0,24.2,N/A,,Overcast,300,2013-12-29 19:12:00
1:58 PM,12.2,3.2,67,30.12,10.0,WNW,16.1,-,N/A,,Overcast,300,2013-12-29 19:58:00
2:58 PM,10.4,1.4,67,30.15,10.0,NW,20.7,-,N/A,,Mostly Cloudy,310,2013-12-29 20:58:00
3:31 PM,8.6,-2.2,62,30.10,10.0,WNW,16.1,-,N/A,,Scattered Clouds,300,2013-12-29 21:31:00
3:58 PM,7.3,-2.6,64,30.18,10.0,WNW,15.0,-,,,Clear,300,2013-12-29 21:58:00
4:58 PM,2.1,-5.8,69,30.21,10.0,WNW,12.7,-,,,Clear,290,2013-12-29 22:58:00
5:58 PM,-0.6,-8.1,70,30.23,10.0,WNW,13.8,-,,,Clear,300,2013-12-29 23:58:00
6:58 PM,-1.5,-10.5,66,30.26,10.0,WNW,10.4,-,,,Clear,300,2013-12-30 00:58:00
7:58 PM,-2.6,-13.0,61,30.27,10.0,NW,13.8,-,,,Clear,310,2013-12-30 01:58:00
8:58 PM,-4.2,-15.9,57,30.29,10.0,WNW,8.1,-,,,Clear,290,2013-12-30 02:58:00
9:58 PM,-9.2,-15.9,73,30.30,10.0,West,6.9,-,,,Clear,280,2013-12-30 03:58:00
10:58 PM,-11.6,-17.9,74,30.31,10.0,WNW,9.2,-,,,Clear,290,2013-12-30 04:58:00
11:58 PM,-13.0,-18.9,75,30.33,10.0,West,8.1,-,,,Clear,280,2013-12-30 05:58:00